Location: Zagreb
(45.8000°N, 16.0000°E)
Time: 06:31:54
(UTC+02:00)

Courier 1B - Pass Details

Date: 11 August 2020
Orbit: 962 x 1209 km, 28.3° (Epoch: 27 September)

Event Time Altitude Azimuth Distance (km) Brightness Sun altitude
Rises 20:02:43 0° 230° (SW) 3,971 11.1 0.4°
Reaches altitude 10° 20:06:38 10° 212° (SSW) 2,963 10.2 -0.3°
Maximum altitude 20:11:03 17° 174° (S) 2,406 9.3 -1.0°
Drops below altitude 10° 20:15:21 10° 135° (SE) 2,849 9.4 -1.7°
Enters shadow 20:18:11 - 120° (ESE) 3,530 9.7 -2.1°
Sets 20:18:59 0° 117° (ESE) 3,755 - -2.3°
